Back to catalog

NORBI

AliveSciencePO
NORAD 46494·PAYLOAD·🇷🇺 Russia

Launched Sep 28, 2020 from Plesetsk Cosmodrome

Loading…

Next Passes (next 24 hours)

TLE

FreshSource: Space-Track

Epoch: Sep 14, 2026, 14:49 UTC

1 46494U 20068J   26257.61741054  .00020550  00000-0  34168-3 0  9990
2 46494  97.8585 281.7110 0003449 291.2683  68.8200 15.52099664330065

Track NORBI in real time with AllMySat

Download on the App Store